Overview Statistics Trail Chart Weather Telemetry Raw packets
 

This is the latest recevied weather packets stored in our database for station/object KB1MS. If no packets are shown the sender has not sent any weather packets the latest 10 day(s).

<< 103 104 105 106 107 108 109 >>
Time Temp. Humidity Pressure Rain* Wind** Luminosity Snow
1787831973 19.44° C 91% 1018 hPa 0 mm - 110 W/m² -
1787831668 18.89° C 92% 1017.8 hPa 0 mm - 116 W/m² -
1787831367 18.89° C 92% 1018.1 hPa 0 mm - 117 W/m² -
1787831065 18.33° C 93% 1017.8 hPa 0 mm - 96 W/m² -
1787830763 18.33° C 93% 1017.9 hPa 0 mm - 96 W/m² -
1787830462 18.33° C 93% 1017.8 hPa 0 mm - 63 W/m² -
1787830161 17.78° C 93% 1018 hPa 0 mm - 62 W/m² -
1787829857 17.78° C 93% 1017.6 hPa 0 mm - 60 W/m² -
1787829555 17.78° C 93% 1017.8 hPa 0 mm - 58 W/m² -
1787829252 17.78° C 93% 1017.7 hPa 0 mm - 53 W/m² -
1787828947 17.78° C 93% 1017.9 hPa 0 mm - 50 W/m² -
1787828643 17.22° C 93% 1017.6 hPa 0 mm - 51 W/m² -
1787828339 17.22° C 93% 1017.5 hPa 0 mm - 41 W/m² -
1787828037 17.22° C 93% 1017.8 hPa 0 mm - 32 W/m² -
1787827732 17.22° C 93% 1017.6 hPa 0 mm - 31 W/m² -
1787827428 16.67° C 93% 1017.6 hPa 0 mm - 25 W/m² -
1787827127 16.67° C 93% 1017.5 hPa 0 mm - 20 W/m² -
1787826826 16.67° C 93% 1017.5 hPa 0 mm - 17 W/m² -
1787826521 16.67° C 93% 1017.7 hPa 0 mm - 14 W/m² -
1787826218 16.67° C 93% 1017.7 hPa 0 mm - 11 W/m² -
1787825918 16.67° C 93% 1017.4 hPa 0 mm - 7 W/m² -
1787825612 16.67° C 93% 1017.4 hPa 0 mm - 4 W/m² -
1787825306 16.67° C 93% 1017.3 hPa 0 mm - 2 W/m² -
1787825005 16.67° C 93% 1017.2 hPa 0 mm - 1 W/m² -
1787824703 16.67° C 93% 1017.2 hPa 0 mm - 1 W/m² -

* Rain latest hour (hover to see other rain measurements)
** Current wind speed in m/s (hover to see current wind gust speed)